Other Surface Observations
Issued by NWS Charleston, SC

Home | Current Version | Previous Version | Text Only | Print | Product List | Glossary On
Versions: 1 2 3 4 5 6 7 8 9 10 11 12 13 14 15 16 17 18 19 20 21 22 23 24 25 26 27 28 29 30 31 32 33 34 35 36 37 38 39 40 41 42 43 44 45 46 47 48 49 50
746
SXUS52 KCHS 240627
OSOCHS

MARINE OBSERVATIONS
NATIONAL WEATHER SERVICE CHARLESTON SC
200 AM EDT TUE OCT 24 2017

...DOWNTOWN CHARLESTON AND HARBOR...

CITY           SKY/WX    TMP DP  RH WIND       PRES   REMARKS
WATERFRONT PRK NOT AVBL

...LAKE MOULTRIE...

CITY           SKY/WX    TMP DP  RH WIND       PRES   REMARKS
PINOPOLIS        N/A     70  66  88 W7        29.79S

...LAKE AND SUPPLEMENTAL COASTAL OBSERVATIONS...

STATION/POSITION TIME  TEMP    WIND        PRES    WAVE   SWELL
                       AIR SEA DIR/SP/G            HT/PER HT/PER/DIR
                 (UTC) (F)     (DEG/KT/KT) (MB)    (FT/S) (FT/S/D)
FORT PULASKI     0600   70 74  300/ 12/ 14 1012.6
SAPELO ISLAND    NOT AVBL
WINYAH BAY       0530   69     300/  2     1010.0S
LAKE MURRAY      0620   63     270/ 12/ 16 1010.8S
ACE BASIN NERRS  0545   67        CALM     1012.0S


...C-MAN AND BUOY OBSERVATIONS...

STATION/POSITION TIME  TEMP    WIND        PRES    WAVE   SWELL
                       AIR SEA DIR/SP/G            HT/PER HT/PER/DIR
                 (UTC) (F)     (DEG/KT/KT) (MB)    (FT/S) (FT/S/D)
BUOY 41004       0610   78 80  250/ 17/ 23 1010.4
BUOY 41008       0550   75 77  260/ 16/ 19 1011.1F   5/ 6   3/ 90/ 8
FOLLY BEACH CMAN 0600   69     300/  5/  7 1011.7F
CAPERS NS BUOY   0608   68 73  300/ 12/ 17 1010.2F
FRIPP NS BUOY    0608   71     320/ 10/ 17   N/A
5E ST. MARYS GA  0600      77                N/A     4/ 6


STATION/POSITION TIME  TEMP    WIND        PRES    WAVE   SWELL
                       AIR SEA DIR/SP/G            HT/PER HT/PER/DIR
                 (UTC) (F)     (DEG/KT/KT) (MB)    (FT/S) (FT/S/D)
FRYING PAN BUOY  0610   80 77  170/ 25/ 33 1010.0
BUOY 41025       0550   79 80  180/ 25/ 31 1013.7R  10/ 8
CAPE LOOKOUT NC  0600   76     170/ 23/ 26 1013.3S
BUOY 41002       0550   78 80  150/ 17/ 21 1015.6F   6/ 6   2/130/12
BUOY 41010       NOT AVBL
ST AUGUSTINE FL  0600   73 78  210/  5/  6 1013.0F

$$




USA.gov is the U.S. government's official web portal to all federal, state and local government web resources and services.